DW1973 Weather Reports


Display with metric or nautical units.
time (UTC)temp
F
wind
direction
speed
MPH
gust
MPH
rain 1hr
in
rain 24hr
in
rain mn
in
humidity
%
barometer
mb
20260901094943 76 196 1.0 3.0 0.00 0.25 0.00 88 1014.4
20260901094430 76 195 0.0 3.0 0.00 0.25 0.00 87 1014.4
20260901093921 76 196 0.0 3.0 0.00 0.25 0.00 87 1014.3
20260901093431 76 196 1.0 4.0 0.00 0.25 0.00 87 1014.3
20260901092921 76 198 2.0 4.0 0.00 0.25 0.00 87 1014.3
20260901092500 76 201 1.0 3.0 0.00 0.25 0.00 87 1014.3
20260901091948 76 201 1.0 3.0 0.00 0.25 0.00 87 1014.4
20260901091419 76 201 1.0 3.0 0.00 0.25 0.00 86 1014.2
20260901090929 76 201 0.0 0.0 0.00 0.25 0.00 87 1014.2
20260901090418 76 201 0.0 2.0 0.00 0.25 0.00 86 1014.3
20260901085928 76 201 0.0 4.0 0.00 0.25 0.00 86 1014.3
20260901085418 77 201 2.0 4.0 0.00 0.25 0.00 86 1014.3
20260901084927 77 201 1.0 3.0 0.00 0.25 0.00 86 1014.2
20260901084421 77 202 1.0 3.0 0.00 0.25 0.00 85 1014.2
20260901083927 77 200 1.0 5.0 0.00 0.25 0.00 85 1014.2
20260901083414 77 205 2.0 5.0 0.00 0.25 0.00 85 1014.3
20260901082924 77 195 2.0 4.0 0.00 0.25 0.00 85 1014.2
20260901082430 77 198 1.0 6.0 0.00 0.25 0.00 85 1014.2
20260901081938 77 213 2.0 6.0 0.00 0.25 0.00 84 1014.2
20260901081458 77 196 2.0 4.0 0.00 0.25 0.00 84 1014.2
20260901080947 77 207 1.0 4.0 0.00 0.25 0.00 84 1014.2
20260901080433 78 236 2.0 4.0 0.00 0.25 0.00 84 1014.0
20260901075922 78 214 2.0 6.0 0.00 0.25 0.00 84 1014.1
20260901075429 78 215 1.0 6.0 0.00 0.25 0.00 84 1014.1
20260901074918 78 205 3.0 6.0 0.00 0.25 0.00 84 1014.2
20260901074425 78 201 2.0 5.0 0.00 0.25 0.00 84 1014.2
20260901073936 78 223 2.0 5.0 0.00 0.25 0.00 84 1014.2
20260901073442 78 211 1.0 5.0 0.00 0.25 0.00 84 1014.1
20260901072928 78 209 2.0 5.0 0.00 0.25 0.00 84 1014.0
20260901072415 78 193 2.0 5.0 0.00 0.25 0.00 83 1014.0
20260901071951 78 211 3.0 5.0 0.00 0.25 0.00 83 1013.9
20260901071424 78 200 2.0 4.0 0.00 0.25 0.00 83 1013.8
20260901070931 78 207 2.0 4.0 0.00 0.25 0.00 83 1013.9
20260901070418 78 219 2.0 4.0 0.00 0.25 0.00 83 1013.9
20260901065931 78 215 1.0 4.0 0.00 0.25 0.00 83 1013.9
20260901065421 78 212 1.0 4.0 0.00 0.25 0.00 83 1013.9
20260901064930 78 210 2.0 5.0 0.00 0.25 0.00 83 1013.8
20260901064436 78 207 2.0 5.0 0.00 0.25 0.00 83 1013.8
20260901063923 78 205 2.0 5.0 0.00 0.25 0.00 83 1013.7
20260901063433 78 204 2.0 5.0 0.00 0.25 0.00 83 1013.7
20260901062922 78 204 2.0 5.0 0.00 0.25 0.00 83 1013.6
20260901062429 78 202 1.0 4.0 0.00 0.25 0.00 83 1013.4
20260901061918 78 196 2.0 4.0 0.00 0.25 0.00 83 1013.5
20260901061451 79 205 2.0 4.0 0.00 0.25 0.00 83 1013.5
20260901060915 79 187 2.0 4.0 0.00 0.25 0.00 83 1013.5
20260901060423 79 198 2.0 4.0 0.00 0.25 0.00 83 1013.6
20260901055915 79 207 2.0 4.0 0.00 0.25 0.00 83 1013.7
20260901055423 79 194 3.0 4.0 0.00 0.25 0.25 83 1013.7
20260901054930 79 197 2.0 4.0 0.00 0.25 0.25 83 1013.8
20260901054437 79 197 2.0 4.0 0.00 0.25 0.25 83 1013.8
20260901053946 79 204 2.0 5.0 0.00 0.25 0.25 83 1013.8
20260901053431 79 202 2.0 6.0 0.00 0.25 0.25 83 1013.9
20260901052922 79 191 3.0 6.0 0.00 0.25 0.25 84 1013.7
20260901052432 79 197 3.0 5.0 0.00 0.25 0.25 84 1013.7
20260901051927 79 217 3.0 6.0 0.00 0.25 0.25 84 1013.5
20260901051421 79 203 4.0 6.0 0.00 0.25 0.25 84 1013.6
20260901050928 79 201 3.0 5.0 0.00 0.25 0.25 84 1013.6
20260901050434 79 215 2.0 5.0 0.00 0.25 0.25 84 1013.7
20260901045933 79 196 3.0 8.0 0.00 0.25 0.25 84 1013.6
20260901045420 79 207 3.0 8.0 0.00 0.25 0.25 84 1013.6
20260901044926 79 204 3.0 5.0 0.00 0.25 0.25 84 1013.8
20260901044433 80 208 2.0 6.0 0.00 0.25 0.25 84 1013.8
20260901043917 80 185 3.0 5.0 0.00 0.25 0.25 84 1013.8
20260901043424 80 198 3.0 5.0 0.00 0.25 0.25 83 1013.8
20260901042916 80 198 2.0 5.0 0.00 0.25 0.25 83 1013.9
20260901042452 80 208 2.0 5.0 0.00 0.25 0.25 83 1013.9
20260901041918 80 207 1.0 5.0 0.00 0.25 0.25 83 1014.1
20260901041428 80 200 2.0 5.0 0.00 0.25 0.25 83 1014.1
20260901040917 80 203 2.0 4.0 0.00 0.25 0.25 83 1014.1
20260901040427 80 199 0.0 5.0 0.00 0.25 0.25 83 1014.1
20260901035921 80 196 1.0 3.0 0.00 0.25 0.25 83 1014.0
20260901035427 80 197 0.0 5.0 0.00 0.25 0.25 83 1014.1
20260901034932 80 54 2.0 5.0 0.00 0.25 0.25 83 1013.9
20260901034423 80 53 2.0 4.0 0.00 0.25 0.25 84 1013.9
20260901033928 80 360 2.0 4.0 0.00 0.25 0.25 84 1013.9
20260901033417 80 53 0.0 3.0 0.00 0.25 0.25 84 1013.9
20260901032948 80 360 0.0 3.0 0.00 0.25 0.25 84 1013.7
20260901032433 80 53 1.0 3.0 0.00 0.25 0.25 84 1013.8
20260901031921 80 360 1.0 4.0 0.00 0.25 0.25 84 1013.8
20260901031452 80 51 2.0 4.0 0.00 0.25 0.25 85 1013.8
20260901030940 80 47 2.0 4.0 0.00 0.25 0.25 85 1013.8
20260901030429 80 48 2.0 5.0 0.00 0.25 0.25 85 1013.9
20260901025921 80 48 3.0 5.0 0.00 0.25 0.25 85 1013.9
20260901025431 79 116 2.0 3.0 0.00 0.25 0.25 86 1014.0
20260901024921 79 44 0.0 3.0 0.00 0.25 0.25 86 1014.1
20260901024428 79 360 1.0 3.0 0.00 0.25 0.25 86 1014.0
20260901023936 79 51 0.0 0.0 0.00 0.25 0.25 85 1014.3
20260901023425 80 360 0.0 0.0 0.00 0.25 0.25 85 1014.5
20260901022938 80 360 0.0 0.0 0.00 0.25 0.25 85 1014.4
20260901022433 80 360 0.0 1.0 0.00 0.25 0.25 84 1014.3
20260901021920 80 360 0.0 2.0 0.00 0.25 0.25 84 1014.2
20260901021432 80 360 1.0 2.0 0.00 0.25 0.25 84 1013.9
20260901020942 80 360 0.0 2.0 0.00 0.25 0.25 84 1014.1
20260901020425 80 360 1.0 4.0 0.00 0.25 0.25 84 1014.0
20260901015917 80 360 1.0 6.0 0.00 0.25 0.25 83 1014.0
20260901015428 81 360 2.0 6.0 0.00 0.25 0.25 83 1013.9
20260901014915 81 360 2.0 5.0 0.00 0.25 0.25 83 1014.0
20260901014443 81 360 2.0 5.0 0.00 0.25 0.25 83 1013.9
20260901013950 81 360 2.0 4.0 0.00 0.25 0.25 83 1013.8
20260901013418 81 360 1.0 3.0 0.00 0.25 0.25 83 1013.8
20260901012930 81 360 2.0 4.0 0.00 0.25 0.25 83 1013.8
20260901012419 81 360 2.0 3.0 0.00 0.25 0.25 82 1013.8
20260901011928 82 360 2.0 3.0 0.00 0.25 0.25 82 1013.8
20260901011421 82 360 1.0 2.0 0.00 0.25 0.25 82 1013.8
20260901010928 82 360 0.0 0.0 0.00 0.25 0.25 82 1013.8
20260901010415 82 360 0.0 0.0 0.00 0.25 0.25 81 1013.7
20260901005920 82 360 0.0 0.0 0.00 0.25 0.25 81 1013.8
20260901005451 82 360 0.0 2.0 0.00 0.25 0.25 81 1013.7
20260901004920 83 360 1.0 2.0 0.00 0.25 0.25 81 1013.7
20260901004433 83 129 1.0 3.0 0.00 0.25 0.25 81 1013.7
20260901003923 83 360 2.0 4.0 0.00 0.25 0.25 81 1013.6
20260901003433 83 360 1.0 4.0 0.00 0.25 0.25 81 1013.7
20260901002953 83 136 2.0 7.0 0.00 0.25 0.25 80 1013.8
20260901002440 83 138 2.0 7.0 0.00 0.25 0.25 80 1014.0
20260901001928 83 138 2.0 5.0 0.00 0.25 0.25 80 1013.8
20260901001419 83 140 1.0 5.0 0.00 0.25 0.25 80 1013.8
20260901000928 83 150 2.0 5.0 0.00 0.25 0.25 80 1013.8
20260901000438 84 137 0.0 3.0 0.00 0.25 0.25 79 1013.5
20260831235930 84 137 1.0 6.0 0.00 0.25 0.25 79 1013.4
20260831235417 83 109 2.0 7.0 0.00 0.25 0.25 79 1012.8
20260831234923 84 100 4.0 8.0 0.00 0.25 0.25 79 1012.6
20260831234453 84 82 6.0 8.0 0.00 0.25 0.25 79 1012.6
20260831233940 84 131 2.0 3.0 0.00 0.25 0.25 78 1013.4
20260831233450 84 148 2.0 3.0 0.00 0.25 0.25 78 1013.8
20260831232938 84 148 0.0 0.0 0.00 0.25 0.25 78 1014.1
20260831232422 84 149 0.0 0.0 0.00 0.25 0.25 77 1014.2
20260831231930 85 149 0.0 2.0 0.00 0.25 0.25 77 1014.1
20260831231443 85 149 0.0 3.0 0.00 0.25 0.25 77 1013.8
20260831230948 85 149 1.0 3.0 0.00 0.25 0.25 77 1013.6
20260831230431 85 149 1.0 3.0 0.00 0.25 0.25 77 1013.6
20260831225923 85 148 1.0 3.0 0.00 0.25 0.25 76 1013.4
20260831225431 84 147 1.0 5.0 0.00 0.25 0.25 78 1013.5
20260831224939 84 144 2.0 5.0 0.00 0.25 0.25 79 1013.5
20260831224451 83 89 2.0 4.0 0.00 0.25 0.25 83 1013.4
20260831223920 83 111 1.0 3.0 0.00 0.25 0.25 83 1013.5
20260831223426 84 360 0.0 0.0 0.00 0.25 0.25 82 1013.9
20260831222920 84 138 0.0 0.0 0.00 0.25 0.25 81 1013.9
20260831222429 84 140 0.0 1.0 0.00 0.25 0.25 80 1013.8
20260831221934 85 144 0.0 1.0 0.00 0.25 0.25 79 1013.6
20260831221427 85 140 0.0 3.0 0.00 0.25 0.25 78 1013.4
20260831220916 85 139 0.0 3.0 0.00 0.25 0.25 76 1013.2
20260831220426 85 150 1.0 4.0 0.00 0.25 0.25 75 1013.2
20260831215931 86 144 3.0 4.0 0.00 0.25 0.25 73 1013.0
20260831215417 87 207 1.0 6.0 0.00 0.25 0.25 72 1012.9
20260831214926 87 196 3.0 6.0 0.00 0.25 0.25 70 1013.1
20260831214417 87 201 3.0 5.0 0.00 0.25 0.25 69 1013.0
20260831213928 87 159 3.0 6.0 0.00 0.25 0.25 69 1013.0
20260831213416 87 201 3.0 6.0 0.00 0.25 0.25 68 1013.2
20260831212923 88 215 3.0 7.0 0.00 0.25 0.25 68 1013.2
20260831212430 88 213 3.0 8.0 0.00 0.25 0.25 66 1013.3
20260831211919 88 209 4.0 8.0 0.00 0.25 0.25 66 1013.3
20260831211432 88 186 3.0 8.0 0.00 0.25 0.25 66 1013.2
20260831210921 88 194 4.0 9.0 0.00 0.25 0.25 65 1013.3
20260831210427 88 186 3.0 10.0 0.00 0.25 0.25 66 1013.3
20260831205940 88 206 5.0 10.0 0.00 0.25 0.25 65 1013.5
20260831205424 88 226 2.0 6.0 0.00 0.25 0.25 67 1013.5
20260831204929 88 286 2.0 6.0 0.00 0.25 0.25 66 1013.5
20260831204420 88 212 3.0 8.0 0.00 0.25 0.25 65 1013.5
20260831203929 88 305 3.0 8.0 0.00 0.25 0.25 65 1013.7
20260831203417 88 244 2.0 8.0 0.00 0.25 0.25 66 1013.7
20260831202926 88 308 1.0 5.0 0.00 0.25 0.25 67 1013.7
20260831202433 88 202 2.0 6.0 0.00 0.25 0.25 67 1013.8
20260831201918 88 217 3.0 9.0 0.00 0.25 0.25 67 1013.8
20260831201428 87 220 2.0 9.0 0.00 0.25 0.25 67 1013.5
20260831200916 87 233 3.0 6.0 0.00 0.25 0.25 66 1013.3
20260831200422 87 247 4.0 9.0 0.00 0.25 0.25 66 1013.2
20260831195913 87 209 3.0 9.0 0.00 0.25 0.25 66 1013.3
20260831195418 87 227 4.0 9.0 0.00 0.25 0.25 65 1013.3
20260831194922 87 232 4.0 9.0 0.00 0.25 0.25 65 1013.2
20260831194414 87 197 4.0 9.0 0.00 0.25 0.25 66 1013.2
20260831193923 87 205 4.0 9.0 0.00 0.25 0.25 64 1013.4
20260831193431 87 225 3.0 8.0 0.00 0.25 0.25 64 1013.5
20260831192921 88 207 4.0 10.0 0.00 0.25 0.25 63 1013.4
20260831192430 88 190 5.0 10.0 0.00 0.25 0.25 63 1013.5
20260831191918 88 248 4.0 9.0 0.01 0.25 0.25 64 1013.4
20260831191428 88 224 4.0 9.0 0.01 0.25 0.25 64 1013.6
20260831190915 88 213 4.0 8.0 0.01 0.25 0.25 63 1013.7
20260831190423 88 229 4.0 8.0 0.01 0.25 0.25 64 1013.7
20260831185932 87 218 4.0 11.0 0.01 0.25 0.25 65 1013.6
20260831185438 87 239 5.0 11.0 0.01 0.25 0.25 65 1013.6
20260831184924 86 232 3.0 11.0 0.01 0.25 0.25 68 1013.7
20260831184431 86 205 5.0 8.0 0.01 0.25 0.25 66 1013.7
20260831183921 86 204 3.0 10.0 0.01 0.25 0.25 68 1013.7
20260831183428 85 202 5.0 11.0 0.01 0.25 0.25 68 1013.6
20260831182938 85 224 5.0 11.0 0.01 0.25 0.25 68 1013.6
20260831182448 85 213 4.0 8.0 0.00 0.24 0.24 70 1013.7
20260831181913 84 224 4.0 11.0 0.00 0.24 0.24 70 1013.8
20260831181424 84 232 5.0 11.0 0.00 0.24 0.24 70 1013.9
20260831180931 83 186 5.0 11.0 0.00 0.24 0.24 72 1013.8
20260831180420 83 220 6.0 12.0 0.00 0.24 0.24 70 1014.0
20260831175928 83 195 5.0 9.0 0.00 0.24 0.24 72 1013.9
20260831175413 82 196 5.0 14.0 0.00 0.25 0.24 73 1014.1
20260831174922 82 219 6.0 14.0 0.00 0.25 0.24 72 1014.0
20260831174427 81 219 5.0 11.0 0.00 0.25 0.24 74 1014.0
20260831173915 81 218 5.0 11.0 0.00 0.25 0.24 74 1014.1
20260831173430 81 209 5.0 11.0 0.00 0.25 0.24 72 1014.2
20260831172918 80 203 6.0 10.0 0.00 0.25 0.24 73 1014.3
20260831172426 80 224 5.0 14.0 0.00 0.25 0.24 76 1014.3
20260831171915 79 188 8.0 14.0 0.00 0.25 0.24 75 1014.4
20260831171426 79 138 5.0 12.0 0.00 0.25 0.24 77 1014.6
20260831170913 78 142 7.0 12.0 0.00 0.25 0.24 78 1014.8
20260831170422 77 105 5.0 9.0 0.00 0.25 0.24 80 1014.9
20260831165914 77 95 3.0 7.0 0.00 0.25 0.24 83 1015.0
20260831165451 76 103 4.0 8.0 0.00 0.25 0.24 82 1015.1
20260831164920 76 360 4.0 8.0 0.00 0.25 0.24 85 1015.2
20260831164426 75 360 3.0 6.0 0.00 0.25 0.24 86 1015.3
20260831163932 75 360 3.0 6.0 0.00 0.25 0.24 86 1015.3
20260831163440 74 360 2.0 6.0 0.00 0.25 0.24 87 1015.3
20260831162924 74 32 4.0 6.0 0.00 0.25 0.24 88 1015.3
20260831162432 73 25 3.0 8.0 0.00 0.25 0.24 88 1015.3
20260831161920 73 25 3.0 8.0 0.00 0.25 0.24 90 1015.2
20260831161431 72 19 3.0 5.0 0.00 0.25 0.24 91 1015.3
20260831160918 72 17 3.0 6.0 0.00 0.25 0.24 91 1015.3
20260831160426 71 17 4.0 6.0 0.00 0.25 0.24 91 1015.3
20260831155919 71 17 2.0 8.0 0.00 0.25 0.24 91 1015.5
20260831155426 71 18 4.0 8.0 0.00 0.25 0.24 90 1015.3
20260831154932 71 50 4.0 6.0 0.00 0.25 0.24 90 1015.3
20260831154423 71 53 4.0 6.0 0.00 0.25 0.24 90 1015.5
20260831153932 71 53 3.0 5.0 0.00 0.25 0.24 90 1015.6
20260831153441 71 51 3.0 5.0 0.00 0.25 0.24 90 1015.6
20260831152928 71 33 4.0 6.0 0.00 0.25 0.24 90 1015.6
20260831152413 71 17 4.0 6.0 0.00 0.25 0.24 91 1015.6
20260831151922 70 19 3.0 6.0 0.01 0.25 0.24 91 1015.7
20260831151413 70 15 3.0 5.0 0.01 0.25 0.24 91 1015.6
20260831150920 70 17 4.0 6.0 0.02 0.25 0.24 90 1015.8
20260831150430 70 15 4.0 6.0 0.03 0.25 0.24 91 1015.8
20260831145950 70 15 4.0 7.0 0.08 0.25 0.24 91 1015.8
20260831145439 70 15 3.0 6.0 0.12 0.25 0.24 91 1015.8
20260831144925 70 17 4.0 6.0 0.14 0.25 0.24 91 1015.6
20260831144413 70 20 4.0 6.0 0.15 0.25 0.24 92 1015.5
20260831143921 70 24 4.0 8.0 0.15 0.25 0.24 92 1015.6
20260831143428 70 22 4.0 6.0 0.16 0.25 0.24 92 1015.5
20260831142933 69 27 4.0 6.0 0.17 0.25 0.24 92 1015.8
20260831142420 70 18 4.0 8.0 0.19 0.25 0.24 92 1015.8
20260831141928 70 19 5.0 7.0 0.20 0.24 0.23 92 1015.7
20260831141441 70 19 4.0 6.0 0.23 0.24 0.23 92 1015.7
20260831140949 70 19 3.0 5.0 0.22 0.23 0.22 92 1015.8
20260831140419 70 20 3.0 5.0 0.20 0.21 0.20 92 1015.9
20260831135926 70 19 3.0 4.0 0.15 0.16 0.15 92 1015.9
20260831135414 70 26 2.0 3.0 0.12 0.15 0.12 91 1016.0
20260831134922 70 24 1.0 2.0 0.10 0.13 0.10 91 1016.0
20260831134434 70 24 0.0 1.0 0.09 0.12 0.09 90 1016.1
20260831133942 70 26 0.0 5.0 0.09 0.12 0.09 89 1016.0
20260831133429 70 25 2.0 6.0 0.08 0.11 0.08 89 1015.8
20260831132920 70 21 4.0 7.0 0.07 0.10 0.07 89 1015.4
20260831132426 71 22 4.0 5.0 0.05 0.08 0.05 88 1015.9
20260831131936 71 24 2.0 3.0 0.02 0.05 0.02 87 1016.0
20260831131423 72 17 1.0 3.0 0.00 0.03 0.00 87 1016.0
20260831130928 72 17 0.0 2.0 0.00 0.03 0.00 84 1016.0
20260831130416 73 17 2.0 2.0 0.00 0.03 0.00 82 1016.0
20260831125948 73 36 0.0 1.0 0.00 0.03 0.00 81 1016.0
20260831125416 73 41 0.0 3.0 0.00 0.05 0.00 80 1016.1
20260831124923 73 37 0.0 3.0 0.00 0.05 0.00 80 1016.1
20260831124416 73 32 2.0 3.0 0.00 0.05 0.00 79 1015.7
20260831123922 74 26 0.0 1.0 0.00 0.05 0.00 78 1015.2
20260831123431 74 24 0.0 4.0 0.00 0.05 0.00 78 1015.4
20260831122918 74 24 2.0 4.0 0.00 0.05 0.00 78 1015.1
20260831122452 73 23 2.0 4.0 0.00 0.05 0.00 78 1015.0
20260831121940 73 22 2.0 3.0 0.00 0.05 0.00 78 1014.9
20260831121424 73 25 2.0 4.0 0.00 0.05 0.00 78 1014.8
20260831120929 73 24 2.0 4.0 0.00 0.05 0.00 78 1014.6
20260831120419 73 24 1.0 5.0 0.00 0.05 0.00 78 1014.6
20260831115930 73 22 0.0 4.0 0.00 0.05 0.00 78 1014.5
20260831115417 73 22 2.0 5.0 0.00 0.05 0.00 78 1014.3
20260831114923 73 25 3.0 6.0 0.00 0.05 0.00 78 1014.4
20260831114416 73 24 4.0 6.0 0.00 0.05 0.00 77 1014.3
20260831113923 74 24 4.0 9.0 0.00 0.05 0.00 77 1014.3
20260831113426 74 24 5.0 9.0 0.00 0.05 0.00 76 1014.2
20260831112915 74 26 4.0 11.0 0.00 0.05 0.00 76 1014.3
20260831112422 75 26 5.0 11.0 0.00 0.05 0.00 74 1014.1
20260831111931 75 27 4.0 10.0 0.00 0.05 0.00 73 1014.2
20260831111420 75 29 5.0 9.0 0.00 0.05 0.00 73 1014.3
20260831110926 74 27 3.0 6.0 0.00 0.05 0.00 74 1014.3
20260831110414 74 28 3.0 5.0 0.00 0.05 0.00 74 1014.1
20260831105926 74 28 3.0 5.0 0.00 0.05 0.00 74 1014.2
20260831105436 74 24 2.0 6.0 0.00 0.05 0.00 75 1014.2
20260831104922 74 26 2.0 4.0 0.00 0.05 0.00 75 1014.1
20260831104434 74 25 3.0 6.0 0.00 0.05 0.00 75 1014.1
20260831103943 74 26 2.0 6.0 0.00 0.05 0.00 75 1014.2
20260831103428 74 24 3.0 6.0 0.00 0.05 0.00 76 1014.2
20260831102938 74 26 3.0 6.0 0.00 0.05 0.00 77 1014.3
20260831102428 74 26 1.0 5.0 0.00 0.05 0.00 78 1014.3
20260831101916 74 23 3.0 5.0 0.00 0.05 0.00 78 1014.3
20260831101424 74 22 2.0 5.0 0.00 0.05 0.00 78 1014.1
20260831100931 74 24 3.0 6.0 0.00 0.05 0.00 78 1014.0
20260831100420 74 23 3.0 6.0 0.00 0.05 0.00 78 1013.9
20260831095914 74 26 3.0 5.0 0.00 0.05 0.00 78 1013.9
20260831095418 74 32 3.0 6.0 0.00 0.05 0.00 79 1013.9